Time,TemperatureF,DewpointF,PressureIn,WindDirection,WindDirectionDegrees,WindSpeedMPH,WindSpeedGustMPH,Humidity,HourlyPrecipIn,Conditions,Clouds,dailyrainin,SoftwareType,DateUTC
2013-06-12 00:00:00,75.9,72.1,29.99,West,281,0.0,-999.0,88,0.00,,,0.00,Haskell-WGSend-v0.01,2013-06-12 05:00:00,
2013-06-12 00:05:00,75.9,72.4,30.00,West,281,0.0,-999.0,89,0.00,,,0.00,Haskell-WGSend-v0.01,2013-06-12 05:05:00,
2013-06-12 00:10:00,75.8,72.3,30.00,West,281,0.0,-999.0,89,0.00,,,0.00,Haskell-WGSend-v0.01,2013-06-12 05:10:00,
2013-06-12 00:20:00,75.6,72.1,30.00,West,281,0.0,-999.0,89,0.00,,,0.00,Haskell-WGSend-v0.01,2013-06-12 05:20:00,
2013-06-12 00:25:00,75.6,72.1,30.00,West,281,0.0,-999.0,89,0.00,,,0.00,Haskell-WGSend-v0.01,2013-06-12 05:25:00,
2013-06-12 00:30:00,75.5,72.0,30.00,West,281,0.0,-999.0,89,0.00,,,0.00,Haskell-WGSend-v0.01,2013-06-12 05:30:00,
2013-06-12 00:35:00,75.4,71.9,29.99,West,281,0.0,-999.0,89,0.00,,,0.00,Haskell-WGSend-v0.01,2013-06-12 05:35:00,
2013-06-12 00:40:00,75.3,71.8,29.99,West,281,0.0,-999.0,89,0.00,,,0.00,Haskell-WGSend-v0.01,2013-06-12 05:40:00,
2013-06-12 00:45:00,75.3,71.8,29.99,West,281,0.0,-999.0,89,0.00,,,0.00,Haskell-WGSend-v0.01,2013-06-12 05:45:00,
2013-06-12 00:50:00,75.2,71.7,29.99,West,281,0.0,-999.0,89,0.00,,,0.00,Haskell-WGSend-v0.01,2013-06-12 05:50:00,
2013-06-12 00:55:00,75.1,72.0,29.99,West,281,0.0,-999.0,90,0.00,,,0.00,Haskell-WGSend-v0.01,2013-06-12 05:55:00,
2013-06-12 01:00:00,75.1,72.0,29.99,West,281,0.0,-999.0,90,0.00,,,0.00,Haskell-WGSend-v0.01,2013-06-12 06:00:00,
2013-06-12 01:05:00,75.0,71.9,29.99,West,281,0.0,-999.0,90,0.00,,,0.00,Haskell-WGSend-v0.01,2013-06-12 06:05:00,
2013-06-12 01:10:00,75.0,71.9,29.98,West,281,0.0,-999.0,90,0.00,,,0.00,Haskell-WGSend-v0.01,2013-06-12 06:10:00,
2013-06-12 01:15:00,74.9,71.8,29.99,West,281,0.0,-999.0,90,0.00,,,0.00,Haskell-WGSend-v0.01,2013-06-12 06:15:00,
2013-06-12 01:20:00,74.8,72.0,29.99,West,281,0.0,-999.0,91,0.00,,,0.00,Haskell-WGSend-v0.01,2013-06-12 06:20:00,
2013-06-12 01:25:00,74.9,72.1,29.99,West,281,0.0,-999.0,91,0.00,,,0.00,Haskell-WGSend-v0.01,2013-06-12 06:25:00,
2013-06-12 01:30:00,75.0,72.2,29.98,West,281,0.0,-999.0,91,0.00,,,0.00,Haskell-WGSend-v0.01,2013-06-12 06:30:00,
2013-06-12 01:35:00,75.1,72.3,29.99,West,281,0.0,-999.0,91,0.00,,,0.00,Haskell-WGSend-v0.01,2013-06-12 06:35:00,
2013-06-12 01:40:00,75.1,72.3,29.99,West,281,0.0,-999.0,91,0.00,,,0.00,Haskell-WGSend-v0.01,2013-06-12 06:40:00,
2013-06-12 01:45:00,75.2,72.4,29.98,West,281,0.0,-999.0,91,0.00,,,0.00,Haskell-WGSend-v0.01,2013-06-12 06:45:00,
2013-06-12 01:50:00,75.4,72.6,29.98,West,281,0.0,-999.0,91,0.00,,,0.00,Haskell-WGSend-v0.01,2013-06-12 06:50:00,
2013-06-12 01:55:00,75.6,72.8,29.99,West,281,0.0,-999.0,91,0.00,,,0.00,Haskell-WGSend-v0.01,2013-06-12 06:55:00,
2013-06-12 02:00:00,75.6,72.5,29.99,West,281,0.0,-999.0,90,0.00,,,0.00,Haskell-WGSend-v0.01,2013-06-12 07:00:00,
2013-06-12 02:05:00,75.6,72.5,29.98,West,281,0.0,-999.0,90,0.00,,,0.00,Haskell-WGSend-v0.01,2013-06-12 07:05:00,
2013-06-12 02:10:00,75.6,72.5,29.99,West,281,0.0,-999.0,90,0.00,,,0.00,Haskell-WGSend-v0.01,2013-06-12 07:10:00,
2013-06-12 02:15:00,75.6,72.5,29.99,West,281,0.0,-999.0,90,0.00,,,0.00,Haskell-WGSend-v0.01,2013-06-12 07:15:00,
2013-06-12 02:20:00,75.5,72.4,29.99,West,281,0.0,-999.0,90,0.00,,,0.00,Haskell-WGSend-v0.01,2013-06-12 07:20:00,
2013-06-12 02:25:00,75.3,72.2,29.99,West,281,0.0,-999.0,90,0.00,,,0.00,Haskell-WGSend-v0.01,2013-06-12 07:25:00,
2013-06-12 02:30:00,75.2,72.1,29.99,West,281,0.0,-999.0,90,0.00,,,0.00,Haskell-WGSend-v0.01,2013-06-12 07:30:00,
2013-06-12 02:40:00,75.1,72.3,29.98,West,281,0.0,-999.0,91,0.00,,,0.00,Haskell-WGSend-v0.01,2013-06-12 07:40:00,
2013-06-12 02:45:00,75.0,72.2,29.98,West,281,0.0,-999.0,91,0.00,,,0.00,Haskell-WGSend-v0.01,2013-06-12 07:45:00,
2013-06-12 02:50:00,74.9,72.1,29.99,West,281,0.0,-999.0,91,0.00,,,0.00,Haskell-WGSend-v0.01,2013-06-12 07:50:00,
2013-06-12 02:55:00,74.8,72.0,29.98,West,281,0.0,-999.0,91,0.00,,,0.00,Haskell-WGSend-v0.01,2013-06-12 07:55:00,
2013-06-12 03:00:00,74.7,71.9,29.98,West,281,0.0,-999.0,91,0.00,,,0.00,Haskell-WGSend-v0.01,2013-06-12 08:00:00,
2013-06-12 03:05:00,74.6,71.8,29.98,West,281,0.0,-999.0,91,0.00,,,0.00,Haskell-WGSend-v0.01,2013-06-12 08:05:00,
2013-06-12 03:10:00,74.4,71.9,29.98,West,281,0.0,-999.0,92,0.00,,,0.00,Haskell-WGSend-v0.01,2013-06-12 08:10:00,
2013-06-12 03:15:00,74.3,71.5,29.98,West,281,0.0,-999.0,91,0.00,,,0.00,Haskell-WGSend-v0.01,2013-06-12 08:15:00,
2013-06-12 03:20:00,74.1,71.3,29.98,West,281,0.0,-999.0,91,0.00,,,0.00,Haskell-WGSend-v0.01,2013-06-12 08:20:00,
2013-06-12 03:25:00,74.0,71.2,29.98,West,281,0.0,-999.0,91,0.00,,,0.00,Haskell-WGSend-v0.01,2013-06-12 08:25:00,
2013-06-12 03:30:00,73.8,71.0,29.98,West,281,0.0,-999.0,91,0.00,,,0.00,Haskell-WGSend-v0.01,2013-06-12 08:30:00,
2013-06-12 03:35:00,73.6,70.8,29.98,West,281,0.0,-999.0,91,0.00,,,0.00,Haskell-WGSend-v0.01,2013-06-12 08:35:00,
2013-06-12 03:40:00,73.5,70.7,29.98,West,281,0.0,-999.0,91,0.00,,,0.00,Haskell-WGSend-v0.01,2013-06-12 08:40:00,
2013-06-12 03:45:00,73.4,70.9,29.98,West,281,0.0,-999.0,92,0.00,,,0.00,Haskell-WGSend-v0.01,2013-06-12 08:45:00,
2013-06-12 03:50:00,73.4,71.3,29.98,West,281,0.0,-999.0,93,0.00,,,0.00,Haskell-WGSend-v0.01,2013-06-12 08:50:00,
2013-06-12 03:55:00,73.3,71.2,29.99,West,281,0.0,-999.0,93,0.00,,,0.00,Haskell-WGSend-v0.01,2013-06-12 08:55:00,
2013-06-12 04:00:00,73.3,71.2,29.99,West,281,0.0,-999.0,93,0.00,,,0.00,Haskell-WGSend-v0.01,2013-06-12 09:00:00,
2013-06-12 04:05:00,73.2,71.1,29.99,West,281,0.0,-999.0,93,0.00,,,0.00,Haskell-WGSend-v0.01,2013-06-12 09:05:00,
2013-06-12 04:10:00,73.1,71.0,29.99,West,281,0.0,-999.0,93,0.00,,,0.00,Haskell-WGSend-v0.01,2013-06-12 09:10:00,
2013-06-12 04:15:00,73.1,71.0,29.99,West,281,0.0,-999.0,93,0.00,,,0.00,Haskell-WGSend-v0.01,2013-06-12 09:15:00,
2013-06-12 04:20:00,73.0,70.9,30.00,West,281,0.0,-999.0,93,0.00,,,0.00,Haskell-WGSend-v0.01,2013-06-12 09:20:00,
2013-06-12 04:25:00,73.0,70.9,30.00,West,281,0.0,-999.0,93,0.00,,,0.00,Haskell-WGSend-v0.01,2013-06-12 09:25:00,
2013-06-12 04:35:00,73.0,71.2,30.00,West,281,0.0,-999.0,94,0.00,,,0.00,Haskell-WGSend-v0.01,2013-06-12 09:35:00,
2013-06-12 04:40:00,73.0,71.2,30.00,West,281,0.0,-999.0,94,0.00,,,0.00,Haskell-WGSend-v0.01,2013-06-12 09:40:00,
2013-06-12 04:45:00,73.0,71.2,30.00,West,281,0.0,-999.0,94,0.00,,,0.00,Haskell-WGSend-v0.01,2013-06-12 09:45:00,
2013-06-12 04:50:00,73.0,71.2,30.00,West,281,0.0,-999.0,94,0.00,,,0.00,Haskell-WGSend-v0.01,2013-06-12 09:50:00,
2013-06-12 05:00:00,72.8,71.0,30.00,West,281,0.0,-999.0,94,0.00,,,0.00,Haskell-WGSend-v0.01,2013-06-12 10:00:00,
2013-06-12 05:05:00,72.8,71.0,30.00,West,281,0.0,-999.0,94,0.00,,,0.00,Haskell-WGSend-v0.01,2013-06-12 10:05:00,
2013-06-12 05:10:00,72.7,70.9,30.00,West,281,0.0,-999.0,94,0.00,,,0.00,Haskell-WGSend-v0.01,2013-06-12 10:10:00,
2013-06-12 05:15:00,72.6,70.8,30.00,West,281,0.0,-999.0,94,0.00,,,0.00,Haskell-WGSend-v0.01,2013-06-12 10:15:00,
2013-06-12 05:20:00,72.6,70.8,30.00,West,281,0.0,-999.0,94,0.00,,,0.00,Haskell-WGSend-v0.01,2013-06-12 10:20:00,
2013-06-12 05:25:00,72.5,70.7,30.01,West,281,0.0,-999.0,94,0.00,,,0.00,Haskell-WGSend-v0.01,2013-06-12 10:25:00,
2013-06-12 05:30:00,72.4,70.6,30.01,West,281,0.0,-999.0,94,0.00,,,0.00,Haskell-WGSend-v0.01,2013-06-12 10:30:00,
2013-06-12 05:35:00,72.3,70.5,30.01,West,281,0.0,-999.0,94,0.00,,,0.00,Haskell-WGSend-v0.01,2013-06-12 10:35:00,
2013-06-12 05:40:00,72.3,70.5,30.01,West,281,0.0,-999.0,94,0.00,,,0.00,Haskell-WGSend-v0.01,2013-06-12 10:40:00,
2013-06-12 05:50:00,72.3,70.5,30.02,West,281,0.0,-999.0,94,0.00,,,0.00,Haskell-WGSend-v0.01,2013-06-12 10:50:00,
2013-06-12 05:55:00,72.2,70.4,30.02,West,281,0.0,-999.0,94,0.00,,,0.00,Haskell-WGSend-v0.01,2013-06-12 10:55:00,
2013-06-12 06:00:00,72.1,70.3,30.02,West,281,0.0,-999.0,94,0.00,,,0.00,Haskell-WGSend-v0.01,2013-06-12 11:00:00,
2013-06-12 06:05:00,72.1,70.3,30.02,West,281,0.0,-999.0,94,0.00,,,0.00,Haskell-WGSend-v0.01,2013-06-12 11:05:00,
2013-06-12 06:10:00,72.2,70.4,30.02,West,281,0.0,-999.0,94,0.00,,,0.00,Haskell-WGSend-v0.01,2013-06-12 11:10:00,
2013-06-12 06:15:00,72.2,70.7,30.02,West,281,0.0,-999.0,95,0.00,,,0.00,Haskell-WGSend-v0.01,2013-06-12 11:15:00,
2013-06-12 06:20:00,72.4,70.9,30.02,West,281,0.0,-999.0,95,0.00,,,0.00,Haskell-WGSend-v0.01,2013-06-12 11:20:00,
2013-06-12 06:25:00,72.5,71.0,30.03,West,281,0.0,-999.0,95,0.00,,,0.00,Haskell-WGSend-v0.01,2013-06-12 11:25:00,
2013-06-12 06:30:00,72.6,71.1,30.03,West,281,0.0,-999.0,95,0.00,,,0.00,Haskell-WGSend-v0.01,2013-06-12 11:30:00,
2013-06-12 06:35:00,72.7,71.2,30.03,West,281,0.0,-999.0,95,0.00,,,0.00,Haskell-WGSend-v0.01,2013-06-12 11:35:00,
2013-06-12 06:40:00,72.9,71.4,30.03,West,281,0.0,-999.0,95,0.00,,,0.00,Haskell-WGSend-v0.01,2013-06-12 11:40:00,
2013-06-12 06:45:00,73.3,71.8,30.03,West,281,0.0,-999.0,95,0.00,,,0.00,Haskell-WGSend-v0.01,2013-06-12 11:45:00,
2013-06-12 06:50:00,73.8,72.6,30.03,West,281,0.0,-999.0,96,0.00,,,0.00,Haskell-WGSend-v0.01,2013-06-12 11:50:00,
2013-06-12 06:55:00,74.4,72.9,30.04,West,281,0.0,-999.0,95,0.00,,,0.00,Haskell-WGSend-v0.01,2013-06-12 11:55:00,
2013-06-12 07:00:00,75.1,73.6,30.03,West,281,0.0,-999.0,95,0.00,,,0.00,Haskell-WGSend-v0.01,2013-06-12 12:00:00,
2013-06-12 07:05:00,75.8,73.6,30.04,West,281,0.0,-999.0,93,0.00,,,0.00,Haskell-WGSend-v0.01,2013-06-12 12:05:00,
2013-06-12 07:10:00,76.4,73.6,30.03,West,281,0.0,-999.0,91,0.00,,,0.00,Haskell-WGSend-v0.01,2013-06-12 12:10:00,
2013-06-12 07:15:00,77.0,73.5,30.03,West,281,0.0,-999.0,89,0.00,,,0.00,Haskell-WGSend-v0.01,2013-06-12 12:15:00,
2013-06-12 07:20:00,77.7,73.9,30.03,West,263,2.0,-999.0,88,0.00,,,0.00,Haskell-WGSend-v0.01,2013-06-12 12:20:00,
2013-06-12 07:25:00,78.2,74.0,30.04,West,261,0.0,-999.0,87,0.00,,,0.00,Haskell-WGSend-v0.01,2013-06-12 12:25:00,
2013-06-12 07:30:00,78.6,74.1,30.04,WSW,245,0.0,-999.0,86,0.00,,,0.00,Haskell-WGSend-v0.01,2013-06-12 12:30:00,
2013-06-12 07:35:00,79.1,74.2,30.04,WSW,238,1.0,-999.0,85,0.00,,,0.00,Haskell-WGSend-v0.01,2013-06-12 12:35:00,
2013-06-12 07:40:00,79.5,74.2,30.04,WSW,248,1.0,-999.0,84,0.00,,,0.00,Haskell-WGSend-v0.01,2013-06-12 12:40:00,
2013-06-12 07:45:00,79.8,74.5,30.04,WSW,252,2.0,-999.0,84,0.00,,,0.00,Haskell-WGSend-v0.01,2013-06-12 12:45:00,
2013-06-12 07:50:00,80.2,74.6,30.05,WSW,252,0.0,-999.0,83,0.00,,,0.00,Haskell-WGSend-v0.01,2013-06-12 12:50:00,
2013-06-12 08:00:00,80.6,74.6,30.05,WSW,247,4.0,-999.0,82,0.00,,,0.00,Haskell-WGSend-v0.01,2013-06-12 13:00:00,
2013-06-12 08:05:00,80.9,74.9,30.05,WSW,237,0.0,-999.0,82,0.00,,,0.00,Haskell-WGSend-v0.01,2013-06-12 13:05:00,
2013-06-12 08:10:00,81.1,74.7,30.05,WSW,244,4.0,-999.0,81,0.00,,,0.00,Haskell-WGSend-v0.01,2013-06-12 13:10:00,
2013-06-12 08:15:00,81.4,75.0,30.05,WSW,240,3.0,-999.0,81,0.00,,,0.00,Haskell-WGSend-v0.01,2013-06-12 13:15:00,
2013-06-12 08:20:00,81.6,75.2,30.05,WSW,255,3.0,-999.0,81,0.00,,,0.00,Haskell-WGSend-v0.01,2013-06-12 13:20:00,
2013-06-12 08:25:00,81.9,75.5,30.05,WSW,257,5.0,-999.0,81,0.00,,,0.00,Haskell-WGSend-v0.01,2013-06-12 13:25:00,
2013-06-12 08:30:00,82.1,74.9,30.05,WSW,250,4.0,-999.0,79,0.00,,,0.00,Haskell-WGSend-v0.01,2013-06-12 13:30:00,
2013-06-12 08:35:00,82.5,75.7,30.05,WSW,248,5.0,-999.0,80,0.00,,,0.00,Haskell-WGSend-v0.01,2013-06-12 13:35:00,
2013-06-12 08:40:00,82.8,75.6,30.05,West,259,0.0,-999.0,79,0.00,,,0.00,Haskell-WGSend-v0.01,2013-06-12 13:40:00,
2013-06-12 08:45:00,83.3,76.1,30.05,WSW,257,0.0,-999.0,79,0.00,,,0.00,Haskell-WGSend-v0.01,2013-06-12 13:45:00,
2013-06-12 08:50:00,83.6,75.6,30.05,West,259,1.0,-999.0,77,0.00,,,0.00,Haskell-WGSend-v0.01,2013-06-12 13:50:00,
2013-06-12 08:55:00,83.8,75.8,30.05,WSW,240,4.0,-999.0,77,0.00,,,0.00,Haskell-WGSend-v0.01,2013-06-12 13:55:00,
2013-06-12 09:00:00,83.9,75.5,30.05,West,260,4.0,-999.0,76,0.00,,,0.00,Haskell-WGSend-v0.01,2013-06-12 14:00:00,
2013-06-12 09:05:00,84.2,75.4,30.05,NNW,332,0.0,-999.0,75,0.00,,,0.00,Haskell-WGSend-v0.01,2013-06-12 14:05:00,
2013-06-12 09:10:00,84.4,75.2,30.05,WNW,292,1.0,-999.0,74,0.00,,,0.00,Haskell-WGSend-v0.01,2013-06-12 14:10:00,
2013-06-12 09:15:00,84.6,75.4,30.05,West,264,2.0,-999.0,74,0.00,,,0.00,Haskell-WGSend-v0.01,2013-06-12 14:15:00,
2013-06-12 09:20:00,84.9,75.3,30.05,West,277,0.0,-999.0,73,0.00,,,0.00,Haskell-WGSend-v0.01,2013-06-12 14:20:00,
2013-06-12 09:25:00,85.1,75.9,30.05,West,273,1.0,-999.0,74,0.00,,,0.00,Haskell-WGSend-v0.01,2013-06-12 14:25:00,
2013-06-12 09:30:00,85.3,75.6,30.05,West,267,4.0,-999.0,73,0.00,,,0.00,Haskell-WGSend-v0.01,2013-06-12 14:30:00,
2013-06-12 09:35:00,85.6,75.9,30.05,NNW,333,7.0,-999.0,73,0.00,,,0.00,Haskell-WGSend-v0.01,2013-06-12 14:35:00,
2013-06-12 09:40:00,86.0,76.3,30.05,WNW,290,2.0,-999.0,73,0.00,,,0.00,Haskell-WGSend-v0.01,2013-06-12 14:40:00,
2013-06-12 09:45:00,86.4,76.7,30.05,West,268,2.0,-999.0,73,0.00,,,0.00,Haskell-WGSend-v0.01,2013-06-12 14:45:00,
2013-06-12 09:50:00,86.6,76.5,30.05,West,274,4.0,-999.0,72,0.00,,,0.00,Haskell-WGSend-v0.01,2013-06-12 14:50:00,
2013-06-12 09:55:00,86.8,77.1,30.05,WSW,240,2.0,-999.0,73,0.00,,,0.00,Haskell-WGSend-v0.01,2013-06-12 14:55:00,
2013-06-12 10:00:00,87.1,76.5,30.05,WSW,256,6.0,-999.0,71,0.00,,,0.00,Haskell-WGSend-v0.01,2013-06-12 15:00:00,
2013-06-12 10:05:00,87.3,76.3,30.05,NW,304,2.0,-999.0,70,0.00,,,0.00,Haskell-WGSend-v0.01,2013-06-12 15:05:00,
2013-06-12 10:10:00,87.5,76.5,30.05,West,275,1.0,-999.0,70,0.00,,,0.00,Haskell-WGSend-v0.01,2013-06-12 15:10:00,
2013-06-12 10:15:00,87.6,75.7,30.05,West,274,5.0,-999.0,68,0.00,,,0.00,Haskell-WGSend-v0.01,2013-06-12 15:15:00,
2013-06-12 10:20:00,87.6,75.7,30.05,West,272,0.0,-999.0,68,0.00,,,0.00,Haskell-WGSend-v0.01,2013-06-12 15:20:00,
2013-06-12 10:30:00,87.5,76.1,30.05,WNW,284,2.0,-999.0,69,0.00,,,0.00,Haskell-WGSend-v0.01,2013-06-12 15:30:00,
2013-06-12 10:35:00,87.5,76.1,30.05,WNW,300,7.0,-999.0,69,0.00,,,0.00,Haskell-WGSend-v0.01,2013-06-12 15:35:00,
2013-06-12 10:40:00,87.3,75.9,30.05,NW,309,4.0,-999.0,69,0.00,,,0.00,Haskell-WGSend-v0.01,2013-06-12 15:40:00,
2013-06-12 10:45:00,87.2,76.2,30.05,NNW,341,5.0,-999.0,70,0.00,,,0.00,Haskell-WGSend-v0.01,2013-06-12 15:45:00,
2013-06-12 10:55:00,87.2,76.2,30.05,WSW,258,3.0,-999.0,70,0.00,,,0.00,Haskell-WGSend-v0.01,2013-06-12 15:55:00,
2013-06-12 11:00:00,87.5,76.1,30.05,West,259,4.0,-999.0,69,0.00,,,0.00,Haskell-WGSend-v0.01,2013-06-12 16:00:00,
2013-06-12 11:05:00,88.1,77.1,30.05,NNW,334,7.0,-999.0,70,0.00,,,0.00,Haskell-WGSend-v0.01,2013-06-12 16:05:00,
2013-06-12 11:10:00,88.5,77.4,30.05,West,267,5.0,-999.0,70,0.00,,,0.00,Haskell-WGSend-v0.01,2013-06-12 16:10:00,
2013-06-12 11:15:00,88.7,76.3,30.05,WNW,301,1.0,-999.0,67,0.00,,,0.00,Haskell-WGSend-v0.01,2013-06-12 16:15:00,
2013-06-12 11:25:00,89.4,76.1,30.05,WSW,246,0.0,-999.0,65,0.00,,,0.00,Haskell-WGSend-v0.01,2013-06-12 16:25:00,
2013-06-12 11:30:00,89.5,77.1,30.05,WSW,250,6.0,-999.0,67,0.00,,,0.00,Haskell-WGSend-v0.01,2013-06-12 16:30:00,
2013-06-12 11:35:00,89.6,75.8,30.04,NW,315,2.0,-999.0,64,0.00,,,0.00,Haskell-WGSend-v0.01,2013-06-12 16:35:00,
2013-06-12 11:40:00,89.7,75.9,30.04,WNW,286,2.0,-999.0,64,0.00,,,0.00,Haskell-WGSend-v0.01,2013-06-12 16:40:00,
2013-06-12 11:45:00,90.0,75.7,30.04,West,269,1.0,-999.0,63,0.00,,,0.00,Haskell-WGSend-v0.01,2013-06-12 16:45:00,
2013-06-12 11:55:00,90.5,76.6,30.04,SW,236,3.0,-999.0,64,0.00,,,0.00,Haskell-WGSend-v0.01,2013-06-12 16:55:00,
2013-06-12 12:00:00,90.7,77.3,30.04,West,265,7.0,-999.0,65,0.00,,,0.00,Haskell-WGSend-v0.01,2013-06-12 17:00:00,
2013-06-12 12:05:00,91.0,76.6,30.03,West,264,5.0,-999.0,63,0.00,,,0.00,Haskell-WGSend-v0.01,2013-06-12 17:05:00,
2013-06-12 12:10:00,91.1,75.8,30.03,West,279,1.0,-999.0,61,0.00,,,0.00,Haskell-WGSend-v0.01,2013-06-12 17:10:00,
2013-06-12 12:15:00,91.4,76.0,30.03,North,350,7.0,-999.0,61,0.00,,,0.00,Haskell-WGSend-v0.01,2013-06-12 17:15:00,
2013-06-12 12:25:00,91.3,75.4,30.03,SW,219,1.0,-999.0,60,0.00,,,0.00,Haskell-WGSend-v0.01,2013-06-12 17:25:00,
2013-06-12 12:30:00,91.5,76.1,30.02,West,278,5.0,-999.0,61,0.00,,,0.00,Haskell-WGSend-v0.01,2013-06-12 17:30:00,
2013-06-12 12:35:00,91.7,76.3,30.02,West,267,7.0,-999.0,61,0.00,,,0.00,Haskell-WGSend-v0.01,2013-06-12 17:35:00,
2013-06-12 12:40:00,91.9,75.0,30.02,West,267,2.0,-999.0,58,0.00,,,0.00,Haskell-WGSend-v0.01,2013-06-12 17:40:00,
2013-06-12 12:45:00,92.2,73.7,30.03,WNW,287,5.0,-999.0,55,0.00,,,0.00,Haskell-WGSend-v0.01,2013-06-12 17:45:00,
2013-06-12 12:55:00,92.8,73.7,30.03,WNW,286,4.0,-999.0,54,0.00,,,0.00,Haskell-WGSend-v0.01,2013-06-12 17:55:00,
2013-06-12 13:00:00,92.8,75.3,30.03,West,268,0.0,-999.0,57,0.00,,,0.00,Haskell-WGSend-v0.01,2013-06-12 18:00:00,
2013-06-12 13:05:00,92.8,75.3,30.03,West,281,6.0,-999.0,57,0.00,,,0.00,Haskell-WGSend-v0.01,2013-06-12 18:05:00,
2013-06-12 13:10:00,92.6,74.6,30.02,WSW,246,2.0,-999.0,56,0.00,,,0.00,Haskell-WGSend-v0.01,2013-06-12 18:10:00,
2013-06-12 13:15:00,92.5,75.0,30.02,WNW,289,1.0,-999.0,57,0.00,,,0.00,Haskell-WGSend-v0.01,2013-06-12 18:15:00,
2013-06-12 13:20:00,92.8,75.8,30.02,WSW,258,3.0,-999.0,58,0.00,,,0.00,Haskell-WGSend-v0.01,2013-06-12 18:20:00,
2013-06-12 13:25:00,92.8,75.3,30.02,WSW,254,3.0,-999.0,57,0.00,,,0.00,Haskell-WGSend-v0.01,2013-06-12 18:25:00,
2013-06-12 13:30:00,92.7,73.6,30.02,NW,309,0.0,-999.0,54,0.00,,,0.00,Haskell-WGSend-v0.01,2013-06-12 18:30:00,
2013-06-12 13:40:00,92.6,75.1,30.01,WSW,248,5.0,-999.0,57,0.00,,,0.00,Haskell-WGSend-v0.01,2013-06-12 18:40:00,
2013-06-12 13:45:00,92.5,75.0,30.01,SW,236,0.0,-999.0,57,0.00,,,0.00,Haskell-WGSend-v0.01,2013-06-12 18:45:00,
2013-06-12 13:50:00,92.8,74.8,30.02,WSW,252,5.0,-999.0,56,0.00,,,0.00,Haskell-WGSend-v0.01,2013-06-12 18:50:00,
2013-06-12 13:55:00,92.9,74.3,30.02,WSW,246,4.0,-999.0,55,0.00,,,0.00,Haskell-WGSend-v0.01,2013-06-12 18:55:00,
2013-06-12 14:00:00,93.1,73.4,30.02,West,279,2.0,-999.0,53,0.00,,,0.00,Haskell-WGSend-v0.01,2013-06-12 19:00:00,
2013-06-12 14:05:00,93.4,74.2,30.01,South,189,3.0,-999.0,54,0.00,,,0.00,Haskell-WGSend-v0.01,2013-06-12 19:05:00,
2013-06-12 14:10:00,93.4,73.7,30.01,SSW,198,2.0,-999.0,53,0.00,,,0.00,Haskell-WGSend-v0.01,2013-06-12 19:10:00,
2013-06-12 14:15:00,93.4,73.1,30.01,SSW,200,0.0,-999.0,52,0.00,,,0.00,Haskell-WGSend-v0.01,2013-06-12 19:15:00,
2013-06-12 14:20:00,93.4,74.2,30.01,WSW,249,4.0,-999.0,54,0.00,,,0.00,Haskell-WGSend-v0.01,2013-06-12 19:20:00,
2013-06-12 14:25:00,93.6,74.4,30.00,WSW,248,2.0,-999.0,54,0.00,,,0.00,Haskell-WGSend-v0.01,2013-06-12 19:25:00,
2013-06-12 14:35:00,94.2,74.4,30.00,WSW,238,4.0,-999.0,53,0.00,,,0.00,Haskell-WGSend-v0.01,2013-06-12 19:35:00,
2013-06-12 14:40:00,94.4,73.5,30.00,NNW,331,2.0,-999.0,51,0.00,,,0.00,Haskell-WGSend-v0.01,2013-06-12 19:40:00,
2013-06-12 14:45:00,94.0,73.7,30.00,WSW,241,4.0,-999.0,52,0.00,,,0.00,Haskell-WGSend-v0.01,2013-06-12 19:45:00,
2013-06-12 14:50:00,93.2,72.9,30.00,West,262,4.0,-999.0,52,0.00,,,0.00,Haskell-WGSend-v0.01,2013-06-12 19:50:00,
2013-06-12 14:55:00,92.9,73.2,29.99,West,266,7.0,-999.0,53,0.00,,,0.00,Haskell-WGSend-v0.01,2013-06-12 19:55:00,
2013-06-12 15:00:00,93.3,74.7,29.99,West,263,1.0,-999.0,55,0.00,,,0.00,Haskell-WGSend-v0.01,2013-06-12 20:00:00,
2013-06-12 15:05:00,93.7,72.2,29.99,SW,218,1.0,-999.0,50,0.00,,,0.00,Haskell-WGSend-v0.01,2013-06-12 20:05:00,
2013-06-12 15:10:00,93.9,71.2,29.99,WSW,242,7.0,-999.0,48,0.00,,,0.00,Haskell-WGSend-v0.01,2013-06-12 20:10:00,
2013-06-12 15:15:00,94.0,69.4,29.99,SSE,161,9.0,-999.0,45,0.00,,,0.00,Haskell-WGSend-v0.01,2013-06-12 20:15:00,
2013-06-12 15:20:00,94.0,68.7,29.98,WNW,286,4.0,-999.0,44,0.00,,,0.00,Haskell-WGSend-v0.01,2013-06-12 20:20:00,
2013-06-12 15:25:00,94.3,69.0,29.98,West,263,4.0,-999.0,44,0.00,,,0.00,Haskell-WGSend-v0.01,2013-06-12 20:25:00,
2013-06-12 15:30:00,94.7,69.4,29.98,West,261,0.0,-999.0,44,0.00,,,0.00,Haskell-WGSend-v0.01,2013-06-12 20:30:00,
2013-06-12 15:35:00,94.9,70.2,29.98,NNW,331,7.0,-999.0,45,0.00,,,0.00,Haskell-WGSend-v0.01,2013-06-12 20:35:00,
2013-06-12 15:40:00,94.9,70.2,29.98,West,268,7.0,-999.0,45,0.00,,,0.00,Haskell-WGSend-v0.01,2013-06-12 20:40:00,
2013-06-12 15:45:00,95.0,70.3,29.97,West,275,4.0,-999.0,45,0.00,,,0.00,Haskell-WGSend-v0.01,2013-06-12 20:45:00,
2013-06-12 15:50:00,95.0,71.6,29.97,WSW,256,5.0,-999.0,47,0.00,,,0.00,Haskell-WGSend-v0.01,2013-06-12 20:50:00,
2013-06-12 15:55:00,94.9,72.1,29.97,WSW,250,5.0,-999.0,48,0.00,,,0.00,Haskell-WGSend-v0.01,2013-06-12 20:55:00,
2013-06-12 16:00:00,94.9,73.9,29.97,SSW,197,4.0,-999.0,51,0.00,,,0.00,Haskell-WGSend-v0.01,2013-06-12 21:00:00,
2013-06-12 16:05:00,94.7,73.7,29.97,South,186,6.0,-999.0,51,0.00,,,0.00,Haskell-WGSend-v0.01,2013-06-12 21:05:00,
2013-06-12 16:10:00,94.7,73.1,29.96,SSW,192,0.0,-999.0,50,0.00,,,0.00,Haskell-WGSend-v0.01,2013-06-12 21:10:00,
2013-06-12 16:15:00,94.6,73.1,29.96,South,183,3.0,-999.0,50,0.00,,,0.00,Haskell-WGSend-v0.01,2013-06-12 21:15:00,
2013-06-12 16:20:00,94.4,72.9,29.96,SSW,197,8.0,-999.0,50,0.00,,,0.00,Haskell-WGSend-v0.01,2013-06-12 21:20:00,
2013-06-12 16:25:00,94.2,73.9,29.96,West,266,11.0,-999.0,52,0.00,,,0.00,Haskell-WGSend-v0.01,2013-06-12 21:25:00,
2013-06-12 16:30:00,94.2,72.7,29.96,South,189,6.0,-999.0,50,0.00,,,0.00,Haskell-WGSend-v0.01,2013-06-12 21:30:00,
2013-06-12 16:35:00,94.4,74.0,29.95,WSW,250,0.0,-999.0,52,0.00,,,0.00,Haskell-WGSend-v0.01,2013-06-12 21:35:00,
2013-06-12 16:40:00,94.6,72.5,29.95,SW,215,1.0,-999.0,49,0.00,,,0.00,Haskell-WGSend-v0.01,2013-06-12 21:40:00,
2013-06-12 16:45:00,94.7,73.1,29.95,WSW,247,7.0,-999.0,50,0.00,,,0.00,Haskell-WGSend-v0.01,2013-06-12 21:45:00,
2013-06-12 16:50:00,94.7,71.9,29.95,WSW,238,2.0,-999.0,48,0.00,,,0.00,Haskell-WGSend-v0.01,2013-06-12 21:50:00,
2013-06-12 16:55:00,94.6,71.2,29.95,SSW,198,1.0,-999.0,47,0.00,,,0.00,Haskell-WGSend-v0.01,2013-06-12 21:55:00,
2013-06-12 17:00:00,94.7,70.7,29.95,SW,235,4.0,-999.0,46,0.00,,,0.00,Haskell-WGSend-v0.01,2013-06-12 22:00:00,
2013-06-12 17:05:00,94.7,73.1,29.95,SW,233,5.0,-999.0,50,0.00,,,0.00,Haskell-WGSend-v0.01,2013-06-12 22:05:00,
2013-06-12 17:10:00,94.5,73.6,29.95,WSW,250,0.0,-999.0,51,0.00,,,0.00,Haskell-WGSend-v0.01,2013-06-12 22:10:00,
2013-06-12 17:15:00,94.5,72.4,29.95,South,180,9.0,-999.0,49,0.00,,,0.00,Haskell-WGSend-v0.01,2013-06-12 22:15:00,
2013-06-12 17:20:00,94.4,71.7,29.94,WSW,242,3.0,-999.0,48,0.00,,,0.00,Haskell-WGSend-v0.01,2013-06-12 22:20:00,
2013-06-12 17:25:00,94.3,71.6,29.94,SSW,202,5.0,-999.0,48,0.00,,,0.00,Haskell-WGSend-v0.01,2013-06-12 22:25:00,
2013-06-12 17:30:00,94.1,70.8,29.94,SSW,205,1.0,-999.0,47,0.00,,,0.00,Haskell-WGSend-v0.01,2013-06-12 22:30:00,
2013-06-12 17:35:00,93.8,71.1,29.94,WSW,244,7.0,-999.0,48,0.00,,,0.00,Haskell-WGSend-v0.01,2013-06-12 22:35:00,
2013-06-12 17:40:00,93.8,71.1,29.94,WSW,256,6.0,-999.0,48,0.00,,,0.00,Haskell-WGSend-v0.01,2013-06-12 22:40:00,
2013-06-12 17:45:00,93.8,71.1,29.93,South,187,7.0,-999.0,48,0.00,,,0.00,Haskell-WGSend-v0.01,2013-06-12 22:45:00,
2013-06-12 17:50:00,93.8,71.7,29.93,South,186,3.0,-999.0,49,0.00,,,0.00,Haskell-WGSend-v0.01,2013-06-12 22:50:00,
2013-06-12 17:55:00,93.8,71.1,29.93,SW,229,5.0,-999.0,48,0.00,,,0.00,Haskell-WGSend-v0.01,2013-06-12 22:55:00,
2013-06-12 18:00:00,93.8,71.7,29.94,South,184,6.0,-999.0,49,0.00,,,0.00,Haskell-WGSend-v0.01,2013-06-12 23:00:00,
2013-06-12 18:05:00,93.8,71.1,29.94,WSW,240,3.0,-999.0,48,0.00,,,0.00,Haskell-WGSend-v0.01,2013-06-12 23:05:00,
2013-06-12 18:10:00,93.6,70.3,29.94,WSW,255,4.0,-999.0,47,0.00,,,0.00,Haskell-WGSend-v0.01,2013-06-12 23:10:00,
2013-06-12 18:20:00,93.5,70.2,29.94,WSW,238,3.0,-999.0,47,0.00,,,0.00,Haskell-WGSend-v0.01,2013-06-12 23:20:00,
2013-06-12 18:25:00,93.4,70.8,29.94,WSW,257,5.0,-999.0,48,0.00,,,0.00,Haskell-WGSend-v0.01,2013-06-12 23:25:00,
2013-06-12 18:35:00,92.8,72.0,29.94,SSW,192,2.0,-999.0,51,0.00,,,0.00,Haskell-WGSend-v0.01,2013-06-12 23:35:00,
2013-06-12 18:40:00,92.3,72.1,29.94,South,175,4.0,-999.0,52,0.00,,,0.00,Haskell-WGSend-v0.01,2013-06-12 23:40:00,
2013-06-12 18:45:00,91.8,72.8,29.94,SW,227,4.0,-999.0,54,0.00,,,0.00,Haskell-WGSend-v0.01,2013-06-12 23:45:00,
2013-06-12 18:50:00,91.3,72.8,29.94,SSW,196,6.0,-999.0,55,0.00,,,0.00,Haskell-WGSend-v0.01,2013-06-12 23:50:00,
2013-06-12 18:55:00,90.8,72.4,29.95,SW,222,3.0,-999.0,55,0.00,,,0.00,Haskell-WGSend-v0.01,2013-06-12 23:55:00,
2013-06-12 19:00:00,90.3,72.5,29.94,SSW,200,4.0,-999.0,56,0.00,,,0.00,Haskell-WGSend-v0.01,2013-06-13 00:00:00,
2013-06-12 19:05:00,89.9,72.1,29.94,SSW,194,5.0,-999.0,56,0.00,,,0.00,Haskell-WGSend-v0.01,2013-06-13 00:05:00,
2013-06-12 19:10:00,89.6,72.3,29.94,SSW,196,0.0,-999.0,57,0.00,,,0.00,Haskell-WGSend-v0.01,2013-06-13 00:10:00,
2013-06-12 19:15:00,89.3,72.1,29.93,SSW,198,5.0,-999.0,57,0.00,,,0.00,Haskell-WGSend-v0.01,2013-06-13 00:15:00,
2013-06-12 19:20:00,89.0,72.3,29.94,SW,221,2.0,-999.0,58,0.00,,,0.00,Haskell-WGSend-v0.01,2013-06-13 00:20:00,
2013-06-12 19:25:00,88.8,72.1,29.94,SSW,205,0.0,-999.0,58,0.00,,,0.00,Haskell-WGSend-v0.01,2013-06-13 00:25:00,
2013-06-12 19:30:00,88.5,72.3,29.94,SSW,206,5.0,-999.0,59,0.00,,,0.00,Haskell-WGSend-v0.01,2013-06-13 00:30:00,
2013-06-12 19:35:00,88.3,72.1,29.94,SSW,201,1.0,-999.0,59,0.00,,,0.00,Haskell-WGSend-v0.01,2013-06-13 00:35:00,
2013-06-12 19:40:00,88.0,72.4,29.94,SSW,202,0.0,-999.0,60,0.00,,,0.00,Haskell-WGSend-v0.01,2013-06-13 00:40:00,
2013-06-12 19:45:00,87.8,72.2,29.94,SSW,196,0.0,-999.0,60,0.00,,,0.00,Haskell-WGSend-v0.01,2013-06-13 00:45:00,
2013-06-12 19:50:00,87.5,72.4,29.94,SSW,197,0.0,-999.0,61,0.00,,,0.00,Haskell-WGSend-v0.01,2013-06-13 00:50:00,
2013-06-12 19:55:00,87.3,72.7,29.94,SSW,197,0.0,-999.0,62,0.00,,,0.00,Haskell-WGSend-v0.01,2013-06-13 00:55:00,
2013-06-12 20:00:00,87.0,72.9,29.94,South,190,0.0,-999.0,63,0.00,,,0.00,Haskell-WGSend-v0.01,2013-06-13 01:00:00,
2013-06-12 20:05:00,86.7,72.6,29.93,SSW,205,4.0,-999.0,63,0.00,,,0.00,Haskell-WGSend-v0.01,2013-06-13 01:05:00,
2013-06-12 20:10:00,86.5,72.9,29.94,SSW,203,0.0,-999.0,64,0.00,,,0.00,Haskell-WGSend-v0.01,2013-06-13 01:10:00,
2013-06-12 20:15:00,86.2,72.6,29.94,SSW,202,6.0,-999.0,64,0.00,,,0.00,Haskell-WGSend-v0.01,2013-06-13 01:15:00,
2013-06-12 20:20:00,86.0,72.9,29.93,SSW,202,1.0,-999.0,65,0.00,,,0.00,Haskell-WGSend-v0.01,2013-06-13 01:20:00,
2013-06-12 20:25:00,85.7,73.0,29.93,SSW,198,2.0,-999.0,66,0.00,,,0.00,Haskell-WGSend-v0.01,2013-06-13 01:25:00,
2013-06-12 20:30:00,85.5,72.8,29.93,SSW,198,0.0,-999.0,66,0.00,,,0.00,Haskell-WGSend-v0.01,2013-06-13 01:30:00,
2013-06-12 20:35:00,85.2,72.5,29.93,SSW,198,0.0,-999.0,66,0.00,,,0.00,Haskell-WGSend-v0.01,2013-06-13 01:35:00,
2013-06-12 20:40:00,85.0,72.8,29.94,SSW,198,2.0,-999.0,67,0.00,,,0.00,Haskell-WGSend-v0.01,2013-06-13 01:40:00,
2013-06-12 20:45:00,84.8,72.6,29.94,SSW,198,3.0,-999.0,67,0.00,,,0.00,Haskell-WGSend-v0.01,2013-06-13 01:45:00,
2013-06-12 20:50:00,84.6,72.9,29.94,SSW,199,0.0,-999.0,68,0.00,,,0.00,Haskell-WGSend-v0.01,2013-06-13 01:50:00,
2013-06-12 20:55:00,84.4,72.7,29.94,SSW,199,0.0,-999.0,68,0.00,,,0.00,Haskell-WGSend-v0.01,2013-06-13 01:55:00,
2013-06-12 21:00:00,84.2,72.9,29.94,SSW,199,0.0,-999.0,69,0.00,,,0.00,Haskell-WGSend-v0.01,2013-06-13 02:00:00,
2013-06-12 21:05:00,83.9,73.1,29.94,SSW,209,3.0,-999.0,70,0.00,,,0.00,Haskell-WGSend-v0.01,2013-06-13 02:05:00,
2013-06-12 21:10:00,83.7,72.9,29.95,SSW,209,0.0,-999.0,70,0.00,,,0.00,Haskell-WGSend-v0.01,2013-06-13 02:10:00,
2013-06-12 21:15:00,83.5,73.1,29.94,SSW,207,2.0,-999.0,71,0.00,,,0.00,Haskell-WGSend-v0.01,2013-06-13 02:15:00,
2013-06-12 21:20:00,83.3,72.9,29.94,SSW,207,0.0,-999.0,71,0.00,,,0.00,Haskell-WGSend-v0.01,2013-06-13 02:20:00,
2013-06-12 21:30:00,82.9,72.9,29.94,SSW,207,0.0,-999.0,72,0.00,,,0.00,Haskell-WGSend-v0.01,2013-06-13 02:30:00,
2013-06-12 21:35:00,82.7,73.2,29.94,SSW,207,0.0,-999.0,73,0.00,,,0.00,Haskell-WGSend-v0.01,2013-06-13 02:35:00,
2013-06-12 21:40:00,82.5,73.0,29.94,SSW,207,2.0,-999.0,73,0.00,,,0.00,Haskell-WGSend-v0.01,2013-06-13 02:40:00,
2013-06-12 21:45:00,82.3,73.2,29.94,SSW,207,0.0,-999.0,74,0.00,,,0.00,Haskell-WGSend-v0.01,2013-06-13 02:45:00,
2013-06-12 21:50:00,82.1,73.0,29.95,SSW,207,0.0,-999.0,74,0.00,,,0.00,Haskell-WGSend-v0.01,2013-06-13 02:50:00,
2013-06-12 21:55:00,81.9,72.8,29.95,SSW,207,0.0,-999.0,74,0.00,,,0.00,Haskell-WGSend-v0.01,2013-06-13 02:55:00,
2013-06-12 22:00:00,81.8,73.1,29.95,SSW,207,0.0,-999.0,75,0.00,,,0.00,Haskell-WGSend-v0.01,2013-06-13 03:00:00,
2013-06-12 22:05:00,81.7,73.0,29.95,SSW,207,0.0,-999.0,75,0.00,,,0.00,Haskell-WGSend-v0.01,2013-06-13 03:05:00,
2013-06-12 22:10:00,81.6,72.9,29.95,SSW,207,0.0,-999.0,75,0.00,,,0.00,Haskell-WGSend-v0.01,2013-06-13 03:10:00,
2013-06-12 22:15:00,81.5,72.8,29.95,SSW,207,0.0,-999.0,75,0.00,,,0.00,Haskell-WGSend-v0.01,2013-06-13 03:15:00,
2013-06-12 22:20:00,81.3,73.0,29.95,SSW,206,0.0,-999.0,76,0.00,,,0.00,Haskell-WGSend-v0.01,2013-06-13 03:20:00,
2013-06-12 22:25:00,81.2,72.9,29.95,SSW,206,0.0,-999.0,76,0.00,,,0.00,Haskell-WGSend-v0.01,2013-06-13 03:25:00,
2013-06-12 22:30:00,81.1,72.8,29.95,SSW,206,0.0,-999.0,76,0.00,,,0.00,Haskell-WGSend-v0.01,2013-06-13 03:30:00,
2013-06-12 22:35:00,80.9,73.0,29.95,SSW,206,0.0,-999.0,77,0.00,,,0.00,Haskell-WGSend-v0.01,2013-06-13 03:35:00,
2013-06-12 22:40:00,80.7,72.8,29.95,SSW,206,0.0,-999.0,77,0.00,,,0.00,Haskell-WGSend-v0.01,2013-06-13 03:40:00,
2013-06-12 22:45:00,80.5,72.6,29.95,SSW,206,0.0,-999.0,77,0.00,,,0.00,Haskell-WGSend-v0.01,2013-06-13 03:45:00,
2013-06-12 22:50:00,80.2,72.7,29.95,SSW,206,0.0,-999.0,78,0.00,,,0.00,Haskell-WGSend-v0.01,2013-06-13 03:50:00,
2013-06-12 22:55:00,80.1,72.6,29.94,SSW,206,0.0,-999.0,78,0.00,,,0.00,Haskell-WGSend-v0.01,2013-06-13 03:55:00,
2013-06-12 23:00:00,79.9,72.8,29.94,SSW,206,0.0,-999.0,79,0.00,,,0.00,Haskell-WGSend-v0.01,2013-06-13 04:00:00,
2013-06-12 23:05:00,79.7,72.6,29.94,SSW,206,0.0,-999.0,79,0.00,,,0.00,Haskell-WGSend-v0.01,2013-06-13 04:05:00,
2013-06-12 23:10:00,79.5,72.8,29.94,SSW,206,0.0,-999.0,80,0.00,,,0.00,Haskell-WGSend-v0.01,2013-06-13 04:10:00,
2013-06-12 23:15:00,79.4,72.7,29.94,SSW,206,2.0,-999.0,80,0.00,,,0.00,Haskell-WGSend-v0.01,2013-06-13 04:15:00,
2013-06-12 23:20:00,79.3,72.6,29.94,SSW,206,0.0,-999.0,80,0.00,,,0.00,Haskell-WGSend-v0.01,2013-06-13 04:20:00,
2013-06-12 23:25:00,79.3,72.6,29.94,SSW,206,0.0,-999.0,80,0.00,,,0.00,Haskell-WGSend-v0.01,2013-06-13 04:25:00,
2013-06-12 23:30:00,79.3,72.6,29.94,SSW,207,2.0,-999.0,80,0.00,,,0.00,Haskell-WGSend-v0.01,2013-06-13 04:30:00,
2013-06-12 23:35:00,79.3,73.0,29.94,SSW,205,5.0,-999.0,81,0.00,,,0.00,Haskell-WGSend-v0.01,2013-06-13 04:35:00,
2013-06-12 23:40:00,79.4,73.1,29.95,SSW,202,3.0,-999.0,81,0.00,,,0.00,Haskell-WGSend-v0.01,2013-06-13 04:40:00,
2013-06-12 23:45:00,79.3,73.0,29.94,SSW,202,0.0,-999.0,81,0.00,,,0.00,Haskell-WGSend-v0.01,2013-06-13 04:45:00,
2013-06-12 23:50:00,79.3,73.0,29.94,SSW,202,0.0,-999.0,81,0.00,,,0.00,Haskell-WGSend-v0.01,2013-06-13 04:50:00,